www.pogodaiklimat.ru

Погода и климат >> Архив погоды >> Кувейт >> Sulaibiya


ПОГОДА в Sulaibiya

  • Прогноз погоды в Sulaibiya
  • Монитор погоды в Sulaibiya
  • Климат города

АРХИВ ПОГОДЫ в Sulaibiya

Время (UTC), дата Ветер
(напр.,м/с)
 
Видим.   Явления Облачность Т
(С)
Тd
(С)
f
(%)
Тe
(С)
Тes
(С)
Комфортность P
(гПа)
Po
(гПа)
Тmin
(С)
Tmax
(С)
R
(мм)
R24
(мм)
S
(см)
06 11.01 З 3 н/о н/о +11.6 -5.6 30 +10 +10 1028.1 1028.0
09 11.01 Ю 1 н/о н/о +20.5 -5.6 17 +22 +22 комфорт 1025.7 1026.0
12 11.01 СВ 3 н/о н/о +20.4 -3.4 20 +21 +21 комфорт 1024.2 1024.0
15 11.01 В 2 н/о н/о +15.7 -0.6 33 +16 +16 1024.9 1025.0
18 11.01 Ю 3 н/о н/о +12.4 +0.7 45 +12 +12 1025.4 1025.0
00 12.01 ЮЗ 4 н/о н/о +7.8 +4.2 78 +4 +4 1024.1 1024.0
03 12.01 ЮЗ 3 н/о н/о +5.8 +2.6 80 +3 +3 1024.9 1025.0
06 12.01 ЮЗ 2 н/о н/о +12.9 -4.8 29 +13 +13 1026.0 1026.0
09 12.01 Ю 3 н/о н/о +21.2 -8.2 13 +20 +20 1023.4 1023.0
12 12.01 Ю 3 н/о н/о +23.2 -8.9 11 +21 +21 комфорт 1021.3 1021.0
15 12.01 В 2 н/о н/о +16.1 +2.4 40 +17 +17 1021.7 1022.0
18 12.01 ЮВ 3 н/о н/о +11.5 +4.8 63 +10 +10 1022.4 1022.0
21 12.01 Ю 2 н/о н/о +8.5 +3.9 73 +7 +7 1021.1 1021.0 +5.5 +24.0
00 13.01 Ю 1 н/о н/о +6.9 -0.3 60 +7 +7 1020.7 1021.0
03 13.01 ЮВ 1 н/о н/о +4.7 -3.0 57 +4 +4 1021.1 1021.0
06 13.01 Ю 3 н/о н/о +12.5 -7.7 24 +12 +12 1021.8 1022.0
09 13.01 В 1 н/о н/о +21.0 -4.5 18 +22 +22 комфорт 1019.8 1020.0
12 13.01 СВ 4 н/о н/о +23.6 -0.6 20 +22 +22 комфорт 1017.4 1017.0
15 13.01 ЮВ 3 н/о н/о +17.0 +5.3 46 +17 +17 1018.6 1019.0
18 13.01 ЮВ 2 н/о н/о +12.6 +8.6 77 +12 +12 1019.1 1019.0
21 13.01 ЮЗ 1 н/о н/о +10.4 +5.5 72 +11 +11 1018.3 1018.0 +4.0 +25.1
00 14.01 Ю 2 н/о н/о +7.6 +2.2 69 +6 +6 1017.6 1018.0
03 14.01 Ю 1 н/о н/о +6.6 -2.4 53 +6 +6 1017.0 1017.0
06 14.01 штиль 0 н/о н/о +15.5 -8.0 19 +16 +16 1018.2 1018.0
09 14.01 В 2 н/о н/о +23.8 -7.4 12 +22 +22 комфорт 1015.8 1016.0
12 14.01 Ю 7 н/о н/о +26.4 -11.2 8 +23 +23 комфорт 1013.6 1014.0
15 14.01 Ю 4 н/о н/о +20.1 -10.6 12 +20 +20 1014.3 1014.0
18 14.01 ЮВ 3 н/о н/о +14.2 -12.1 15 +14 +14 1015.9 1016.0
21 14.01 З 2 н/о н/о +15.2 -12.3 14 +16 +16 1016.8 1017.0 +5.8 +26.9
00 15.01 З 2 н/о н/о +11.2 -7.5 26 +11 +11 1017.4 1017.0
03 15.01 СЗ 4 н/о н/о +12.9 -4.7 29 +12 +12 1019.2 1019.0
06 15.01 СЗ 4 н/о н/о +16.1 -2.0 29 +16 +16 1021.6 1022.0
09 15.01 С 4 н/о н/о +22.0 -0.6 22 +21 +21 комфорт 1020.6 1021.0
12 15.01 СЗ 5 н/о н/о +23.0 -2.6 18 +22 +22 комфорт 1019.3 1019.0
15 15.01 СЗ 4 н/о н/о +19.1 -1.7 24 +19 +19 1020.2 1020.0
18 15.01 СЗ 3 н/о н/о +13.0 -2.8 33 +12 +12 1021.9 1022.0
21 15.01 СЗ 4 н/о н/о +11.6 -1.4 40 +10 +10 1022.1 1022.0 +10.5 +23.4
00 16.01 З 4 н/о н/о +10.4 +0.2 49 +8 +8 1022.3 1022.0
03 16.01 З 4 н/о н/о +8.7 +1.0 58 +6 +6 1023.2 1023.0
06 16.01 З 3 н/о н/о +13.6 +2.6 47 +13 +13 1024.8 1025.0
09 16.01 СЗ 6 н/о н/о +19.1 +1.6 31 +19 +19 1022.8 1023.0
12 16.01 СЗ 7 н/о н/о +20.1 -0.9 24 +20 +20 1020.8 1021.0
15 16.01 СЗ 4 н/о н/о +17.3 -0.2 31 +17 +17 1020.6 1021.0
18 16.01 З 2 н/о н/о +12.8 +0.5 43 +12 +12 1021.8 1022.0
21 16.01 З 4 н/о н/о +10.4 +0.6 51 +8 +8 1020.3 1020.0 +7.9 +20.6
00 17.01 ЮЗ 3 н/о н/о +7.2 +0.2 61 +5 +5 1019.1 1019.0
03 17.01 ЮЗ 3 н/о н/о +6.6 -0.5 60 +4 +4 1019.3 1019.0
06 17.01 ЮЗ 3 н/о н/о +13.0 +0.8 43 +12 +12 1019.9 1020.0
09 17.01 З 2 н/о н/о +19.0 +0.9 30 +20 +20 1018.0 1018.0
12 17.01 СЗ 3 н/о н/о +20.2 -0.3 25 +21 +21 комфорт 1015.8 1016.0
15 17.01 В 1 н/о н/о +15.4 +2.5 42 +17 +17 1016.2 1016.0
18 17.01 Ю 3 н/о н/о +12.6 +2.0 48 +12 +12 1016.9 1017.0
21 17.01 Ю 2 н/о н/о +10.9 +5.1 67 +10 +10 1016.5 1017.0 +6.3 +20.5

 

Местоположение метеостанции Sulaibiya (Кувейт): широта 29.27 долгота 47.72 высота над уровнем моря 55 м.

В архиве по умолчанию представлена погода в Sulaibiya за последнюю неделю. Архивные данные за месяц целиком и за предыдущие месяцы, начиная с января 2011 года, Вы можете получить, выбрав интересующий диапазон дат из раскрывающегося списка и нажав кнопку "Ввод!".

Внимание! Время в таблицах - всемирное. Для получения местного времени необходимо прибавить поправку, которая в Sulaibiya равна 3 ч.

Смотрите также архив погоды в соседних городах и на ближайших метеорологических станциях:

Погода в Jahra (Кувейт) (7 км)
Погода в Experimental Farm (Кувейт) (21 км)
Погода в Kuwait (Кувейт) (25 км)
Погода в Minagish (Кувейт) (29 км)
Погода в Kuwait City (Кувейт) (33 км)
Погода в Al-Shuaiba (Кувейт) (38 км)
Погода в Jal Aliyah (Кувейт) (40 км)
Погода в Sabriyah (Кувейт) (55 км)
Погода в Failaka Island (Кувейт) (59 км)
Погода в Mitribah (Кувейт) (70 км)

Пояснения к столбцам:

Ветер - указаны скорость ветра в м/с - средняя за 10 мин, порывы в срок и между сроками (в фигурных скобках) и направление, откуда дует ветер: С - северный, СВ - северо-восточный, В - восточный, ЮВ - юго-восточный, Ю - южный, ЮЗ - юго-западный, З - западный, СЗ - северо-западный.
Видимость - горизонтальная дальность видимости в метрах или километрах. При видимости от 1 до 10 км при отсутствии осадков обычно наблюдается дымка, при ухудшении видимости до 1 км и менее - туман. В сухую погоду видимость может ухудшаться дымом, пылью или мглою.
Явления - указаны атмосферные явления, наблюдавшиеся в срок или в последний час перед сроком; фигурными скобками обозначены явления, наблюдавшиеся между сроками (за 1-3 часа до срока); квадратными скобками обозначены град или гололедные отложения с указанием их диаметра в мм.
Облачность - указаны через наклонную черту общая и нижняя облачность в баллах и высота нижней границы облаков в метрах; квадратными скобками обозначены формы облаков: Ci - перистые, Cs - перисто-слоистые, Cc - перисто-кучевые, Ac - высококучевые, As - высокослоистые, Sc - слоисто-кучевые, Ns - слоисто-дождевые, Cu - кучевые, Cb - кучево-дождевые. Подробнее классификацию облаков см. в Атласе облаков (PDF).
T - Температура воздуха - температура, измеренная на высоте 2 м над землей.
Td - Температура точки росы - температура, при понижении до которой содержащийся в воздухе водяной пар достигнет насыщения.
f - Относительная влажность воздуха - влажноcть воздуха, измеренная на высоте 2 м над землей.
Te - Эффективная температура - температура, которую ощущает одетый по сезону человек в тени. Характеристика душности погоды. При расчете учитывается влияние влажности воздуха и скорости ветра на теплоощущения человека.
Tes - Эффективная температура на солнце - температура, которую ощущает человек, с поправкой на солнечный нагрев. Характеристика знойности погоды. Зависит от высоты солнца над горизонтом, облачности и скорости ветра. Ночью, в пасмурную погоду, а также при ветре 12 м/с и более поправка равна нулю.
P - Атмосферное давление - приведенное к уровню моря атмосферное давление.
Po - Атмосферное давление - измеренное на уровне метеостанции атмосферное давление.
Tmin - Минимальная температура - минимум температуры воздуха на высоте 2 м над землей.
Tmax - Максимальная температура - максимум температуры воздуха на высоте 2 м над землей.
R - Количество осадков - Количество выпавших осадков за период времени, мм. При наведении курсора мыши на число - период времени, за который выпало указанное количество осадков.
R24 - Количество осадков - Количество выпавших осадков за 24 часа, мм.
S - Снежный покров - Высота снежного покрова, см. При наведении курсора мыши на число - состояние снежного покрова и степень покрытия местности в баллах.